BAW1339 EGJJ-EGLL

Flight info

Callsign BAW1339
Flight time 0h 49m
Altitude 22000
Route ORTAC DCT ORIST/N0348F230 L982 ROXOG
Aircraft A20N/M-SDE2E3FGHIRWXY/LB1

Departure

Time 2026-05-07 00:26
Airport Jersey Airport (EGJJ)

Arrival

Time 2026-05-07 01:15
Airport London Heathrow Airport (EGLL)
Time Latitude Longitude Altitude Speed Heading
2026-05-07 00:14 49.20376 -2.19541 271 ft 0 kts 197°
2026-05-07 00:19 49.20380 -2.19540 282 ft 2 kts 197°
2026-05-07 00:19 49.20394 -2.19533 267 ft 2 kts 201°
2026-05-07 00:20 49.20407 -2.19522 288 ft 2 kts 229°
2026-05-07 00:20 49.20415 -2.19503 281 ft 2 kts 256°
2026-05-07 00:20 49.20417 -2.19484 281 ft 0 kts 278°
2026-05-07 00:21 49.20417 -2.19492 281 ft 2 kts 278°
2026-05-07 00:22 49.20423 -2.19545 281 ft 8 kts 281°
2026-05-07 00:22 49.20435 -2.19622 282 ft 5 kts 283°
2026-05-07 00:22 49.20441 -2.19657 280 ft 5 kts 283°
2026-05-07 00:22 49.20441 -2.19748 280 ft 13 kts 265°
2026-05-07 00:23 49.20454 -2.19899 282 ft 15 kts 322°
2026-05-07 00:23 49.20520 -2.20018 282 ft 16 kts 291°
2026-05-07 00:23 49.20560 -2.20202 280 ft 20 kts 286°
2026-05-07 00:23 49.20602 -2.20419 279 ft 22 kts 287°
2026-05-07 00:24 49.20629 -2.20567 279 ft 15 kts 275°
2026-05-07 00:24 49.20664 -2.20690 279 ft 11 kts 352°
2026-05-07 00:24 49.20709 -2.20605 278 ft 9 kts 77°
2026-05-07 00:24 49.20711 -2.20588 280 ft 3 kts 78°
2026-05-07 00:25 49.20717 -2.20542 278 ft 6 kts 80°
2026-05-07 00:25 49.20756 -2.20059 279 ft 92 kts 83°
2026-05-07 00:25 49.20864 -2.18687 285 ft 164 kts 84°
2026-05-07 00:25 49.21009 -2.16842 791 ft 191 kts 83°
2026-05-07 00:26 49.21168 -2.14625 1367 ft 225 kts 83°
2026-05-07 00:26 49.21367 -2.12283 2779 ft 223 kts 81°
2026-05-07 00:26 49.21600 -2.09904 3828 ft 232 kts 80°
2026-05-07 00:26 49.22046 -2.07425 4418 ft 253 kts 60°
2026-05-07 00:27 49.23213 -2.05392 4859 ft 261 kts 32°
2026-05-07 00:27 49.24928 -2.04472 5818 ft 264 kts
2026-05-07 00:27 49.26739 -2.04381 7053 ft 262 kts
2026-05-07 00:27 49.28570 -2.04294 8083 ft 266 kts
2026-05-07 00:28 49.30448 -2.04196 9060 ft 273 kts
2026-05-07 00:28 49.32366 -2.04093 10084 ft 277 kts
2026-05-07 00:28 49.34338 -2.03987 10789 ft 293 kts
2026-05-07 00:28 49.36468 -2.03875 11168 ft 318 kts
2026-05-07 00:29 49.38742 -2.03756 11717 ft 333 kts
2026-05-07 00:29 49.41065 -2.03635 12663 ft 335 kts
2026-05-07 00:30 49.48192 -2.03259 15182 ft 349 kts
2026-05-07 00:30 49.50635 -2.03129 15975 ft 353 kts
2026-05-07 00:30 49.53117 -2.02996 16706 ft 360 kts
2026-05-07 00:30 49.55629 -2.02862 17509 ft 363 kts
2026-05-07 00:31 49.58166 -2.02727 18277 ft 367 kts
2026-05-07 00:31 49.60735 -2.02592 18925 ft 372 kts
2026-05-07 00:31 49.63337 -2.02454 19571 ft 376 kts
2026-05-07 00:31 49.65965 -2.02316 20215 ft 381 kts
2026-05-07 00:32 49.68632 -2.02174 20848 ft 386 kts
2026-05-07 00:32 49.71338 -2.02031 21473 ft 391 kts
2026-05-07 00:32 49.74070 -2.01885 21828 ft 394 kts
2026-05-07 00:32 49.76816 -2.01736 21953 ft 394 kts
2026-05-07 00:33 49.79565 -2.01585 21966 ft 395 kts
2026-05-07 00:33 49.82310 -2.01436 21965 ft 395 kts
2026-05-07 00:33 49.85059 -2.01288 21968 ft 394 kts
2026-05-07 00:33 49.87765 -2.01143 21964 ft 395 kts
2026-05-07 00:34 49.90542 -2.00995 21966 ft 394 kts
2026-05-07 00:34 49.93260 -2.00402 21970 ft 397 kts 14°
2026-05-07 00:34 49.95757 -1.98662 21975 ft 401 kts 31°
2026-05-07 00:34 49.97876 -1.95851 21973 ft 404 kts 48°
2026-05-07 00:35 49.99412 -1.92201 21969 ft 406 kts 64°
2026-05-07 00:35 50.00234 -1.87989 21975 ft 411 kts 81°
2026-05-07 00:35 50.00783 -1.83641 21972 ft 407 kts 70°
2026-05-07 00:35 50.02004 -1.79713 21978 ft 406 kts 54°
2026-05-07 00:36 50.03889 -1.76446 21973 ft 404 kts 38°
2026-05-07 00:36 50.06248 -1.74152 21974 ft 399 kts 21°
2026-05-07 00:36 50.08912 -1.72995 21973 ft 396 kts
2026-05-07 00:36 50.11652 -1.73059 21975 ft 392 kts 349°
2026-05-07 00:37 50.14347 -1.73680 21975 ft 392 kts 356°
2026-05-07 00:37 50.17037 -1.73278 21977 ft 397 kts 12°
2026-05-07 00:37 50.19608 -1.71669 21979 ft 401 kts 29°
2026-05-07 00:37 50.21804 -1.68973 21978 ft 404 kts 45°
2026-05-07 00:38 50.23439 -1.65416 21980 ft 407 kts 60°
2026-05-07 00:38 50.24775 -1.61501 21981 ft 408 kts 61°
2026-05-07 00:38 50.25988 -1.57507 21980 ft 407 kts 66°
2026-05-07 00:38 50.26944 -1.53328 21979 ft 410 kts 73°
2026-05-07 00:39 50.27506 -1.48967 21984 ft 408 kts 79°
2026-05-07 00:39 50.28010 -1.44590 21984 ft 411 kts 78°
2026-05-07 00:39 50.28554 -1.40209 21982 ft 409 kts 78°
2026-05-07 00:39 50.29101 -1.35849 21983 ft 411 kts 78°
2026-05-07 00:40 50.29648 -1.31455 21983 ft 413 kts 78°
2026-05-07 00:40 50.30187 -1.27052 21980 ft 410 kts 78°
2026-05-07 00:40 50.30720 -1.22659 21979 ft 413 kts 78°
2026-05-07 00:40 50.31251 -1.18261 21978 ft 409 kts 79°
2026-05-07 00:41 50.31777 -1.13876 21980 ft 413 kts 79°
2026-05-07 00:41 50.32304 -1.09470 21975 ft 411 kts 79°
2026-05-07 00:41 50.32825 -1.05097 21980 ft 409 kts 79°
2026-05-07 00:41 50.33348 -1.00690 21981 ft 413 kts 79°
2026-05-07 00:42 50.33862 -0.96353 21983 ft 409 kts 79°
2026-05-07 00:42 50.34387 -0.91904 21978 ft 412 kts 79°
2026-05-07 00:42 50.34904 -0.87513 21977 ft 407 kts 79°
2026-05-07 00:42 50.35407 -0.83224 21977 ft 407 kts 79°
2026-05-07 00:43 50.35920 -0.78844 21976 ft 409 kts 79°
2026-05-07 00:43 50.36428 -0.74480 21976 ft 407 kts 79°
2026-05-07 00:43 50.36938 -0.70084 21975 ft 410 kts 79°
2026-05-07 00:43 50.37443 -0.65721 21975 ft 406 kts 79°
2026-05-07 00:44 50.37948 -0.61332 21976 ft 411 kts 79°
2026-05-07 00:44 50.38454 -0.56932 21976 ft 408 kts 79°
2026-05-07 00:44 50.38953 -0.52565 21976 ft 408 kts 79°
2026-05-07 00:44 50.39456 -0.48157 21979 ft 411 kts 79°
2026-05-07 00:45 50.39954 -0.43778 21980 ft 406 kts 79°
2026-05-07 00:45 50.40451 -0.39389 21977 ft 410 kts 79°
2026-05-07 00:45 50.40941 -0.35045 21970 ft 408 kts 79°
2026-05-07 00:45 50.41434 -0.30658 21977 ft 411 kts 79°
2026-05-07 00:46 50.41929 -0.26249 21974 ft 409 kts 79°
2026-05-07 00:46 50.42418 -0.21867 21978 ft 409 kts 79°
2026-05-07 00:46 50.42911 -0.17437 21977 ft 413 kts 80°
2026-05-07 00:46 50.43401 -0.13025 21978 ft 408 kts 80°
2026-05-07 00:47 50.43886 -0.08624 21976 ft 412 kts 80°
2026-05-07 00:47 50.44373 -0.04201 21973 ft 410 kts 80°
2026-05-07 00:47 50.44856 0.00204 21969 ft 409 kts 79°
2026-05-07 00:47 50.45331 0.04560 21967 ft 402 kts 80°
2026-05-07 00:48 50.45802 0.08888 21971 ft 404 kts 80°
2026-05-07 00:48 50.46276 0.13257 21971 ft 407 kts 80°
2026-05-07 00:48 50.46747 0.17618 21971 ft 403 kts 80°
2026-05-07 00:48 50.47215 0.21959 21967 ft 406 kts 80°
2026-05-07 00:49 50.47684 0.26336 21966 ft 405 kts 80°
2026-05-07 00:49 50.48149 0.30687 21966 ft 405 kts 80°
2026-05-07 00:49 50.48615 0.35066 21965 ft 407 kts 80°
2026-05-07 00:49 50.49078 0.39428 21962 ft 404 kts 80°
2026-05-07 00:50 50.49540 0.43798 21966 ft 408 kts 80°
2026-05-07 00:50 50.50002 0.48186 21967 ft 404 kts 80°
2026-05-07 00:50 50.50452 0.52499 21967 ft 400 kts 80°
2026-05-07 00:50 50.50903 0.56811 21875 ft 399 kts 80°
2026-05-07 00:51 50.51344 0.61044 21525 ft 397 kts 80°
2026-05-07 00:51 50.51786 0.65315 20971 ft 395 kts 79°
2026-05-07 00:51 50.52224 0.69550 20434 ft 390 kts 79°
2026-05-07 00:51 50.52655 0.73750 19832 ft 388 kts 79°
2026-05-07 00:52 50.53081 0.77918 19275 ft 384 kts 79°
2026-05-07 00:52 50.53502 0.82043 18721 ft 381 kts 79°
2026-05-07 00:52 50.53918 0.86133 18218 ft 376 kts 79°
2026-05-07 00:52 50.54329 0.90176 17952 ft 373 kts 79°
2026-05-07 00:53 50.54738 0.94228 17957 ft 376 kts 78°
2026-05-07 00:53 50.55142 0.98254 17951 ft 370 kts 78°
2026-05-07 00:53 50.55659 1.02215 17947 ft 370 kts 69°
2026-05-07 00:53 50.56837 1.05767 17953 ft 364 kts 50°
2026-05-07 00:54 50.58665 1.08481 17946 ft 364 kts 32°
2026-05-07 00:54 50.60926 1.10084 17954 ft 361 kts 13°
2026-05-07 00:54 50.63393 1.10434 17949 ft 357 kts 355°
2026-05-07 00:54 50.65810 1.09450 17958 ft 365 kts 335°
2026-05-07 00:55 50.67905 1.07253 17960 ft 361 kts 317°
2026-05-07 00:55 50.69616 1.04317 17957 ft 364 kts 312°
2026-05-07 00:55 50.71279 1.01308 17960 ft 361 kts 313°
2026-05-07 00:55 50.72951 0.98391 17961 ft 357 kts 314°
2026-05-07 00:56 50.74664 0.95528 17955 ft 359 kts 315°
2026-05-07 00:56 50.76393 0.92724 17957 ft 364 kts 315°
2026-05-07 00:56 50.78166 0.89888 17957 ft 363 kts 315°
2026-05-07 00:56 50.79952 0.87039 17960 ft 364 kts 315°
2026-05-07 00:57 50.81715 0.84227 17963 ft 358 kts 315°
2026-05-07 00:57 50.83495 0.81384 17961 ft 368 kts 315°
2026-05-07 00:57 50.85286 0.78518 17959 ft 363 kts 315°
2026-05-07 00:57 50.87049 0.75693 17960 ft 363 kts 315°
2026-05-07 00:58 50.88842 0.72821 17948 ft 367 kts 314°
2026-05-07 00:58 50.90606 0.69999 17745 ft 364 kts 314°
2026-05-07 00:58 50.92381 0.67159 17490 ft 363 kts 314°
2026-05-07 00:58 50.94138 0.64299 17231 ft 359 kts 310°
2026-05-07 00:59 50.95918 0.57128 16725 ft 358 kts 272°
2026-05-07 00:59 50.95570 0.53207 16470 ft 362 kts 252°
2026-05-07 00:59 50.94531 0.49574 16220 ft 361 kts 244°
2026-05-07 01:00 50.93432 0.46014 15951 ft 358 kts 250°
2026-05-07 01:00 50.92933 0.42270 15701 ft 349 kts 270°
2026-05-07 01:00 50.93095 0.38431 15455 ft 352 kts 276°
2026-05-07 01:00 50.93330 0.34568 15201 ft 351 kts 276°
2026-05-07 01:01 50.93567 0.30708 14957 ft 353 kts 276°
2026-05-07 01:01 50.93993 0.26906 14704 ft 349 kts 290°
2026-05-07 01:01 50.95170 0.23578 14467 ft 345 kts 308°
2026-05-07 01:01 50.96701 0.20633 14225 ft 348 kts 309°
2026-05-07 01:02 50.98252 0.17686 13994 ft 346 kts 310°
2026-05-07 01:02 50.99771 0.14799 13749 ft 346 kts 309°
2026-05-07 01:02 51.01311 0.11859 13467 ft 346 kts 309°
2026-05-07 01:02 51.02844 0.08926 13191 ft 344 kts 309°
2026-05-07 01:03 51.04364 0.06008 12941 ft 340 kts 310°
2026-05-07 01:03 51.05857 0.03140 12672 ft 335 kts 310°
2026-05-07 01:03 51.07339 0.00287 12298 ft 335 kts 310°
2026-05-07 01:03 51.08818 -0.02565 11768 ft 333 kts 310°
2026-05-07 01:04 51.10283 -0.05393 11273 ft 330 kts 310°
2026-05-07 01:04 51.11737 -0.08202 10780 ft 326 kts 310°
2026-05-07 01:04 51.13149 -0.10935 10325 ft 322 kts 311°
2026-05-07 01:04 51.14537 -0.13625 10176 ft 307 kts 311°
2026-05-07 01:05 51.15863 -0.16196 10041 ft 293 kts 311°
2026-05-07 01:05 51.17134 -0.18659 9817 ft 284 kts 311°
2026-05-07 01:05 51.18376 -0.21069 9492 ft 277 kts 311°
2026-05-07 01:05 51.19585 -0.23409 9299 ft 274 kts 310°
2026-05-07 01:06 51.20798 -0.25767 8938 ft 275 kts 311°
2026-05-07 01:06 51.22009 -0.28124 8570 ft 273 kts 310°
2026-05-07 01:06 51.23192 -0.30424 8217 ft 270 kts 310°
2026-05-07 01:06 51.24372 -0.32725 7851 ft 267 kts 310°
2026-05-07 01:07 51.25538 -0.35002 7510 ft 263 kts 310°
2026-05-07 01:07 51.26688 -0.37248 7162 ft 259 kts 310°
2026-05-07 01:07 51.27819 -0.39457 7018 ft 256 kts 310°
2026-05-07 01:07 51.28913 -0.41599 7000 ft 241 kts 310°
2026-05-07 01:08 51.29941 -0.43607 6999 ft 226 kts 312°
2026-05-07 01:08 51.31055 -0.45264 6928 ft 214 kts 324°
2026-05-07 01:08 51.32284 -0.46489 6863 ft 203 kts 329°
2026-05-07 01:08 51.33456 -0.47629 6785 ft 192 kts 328°
2026-05-07 01:09 51.34548 -0.48715 6658 ft 183 kts 328°
2026-05-07 01:09 51.35598 -0.49767 6593 ft 171 kts 328°
2026-05-07 01:09 51.36558 -0.50730 6525 ft 156 kts 329°
2026-05-07 01:09 51.37437 -0.51609 6433 ft 142 kts 329°
2026-05-07 01:10 51.38249 -0.52421 6291 ft 135 kts 329°
2026-05-07 01:10 51.39047 -0.53218 6066 ft 135 kts 329°
2026-05-07 01:10 51.39843 -0.54011 5840 ft 134 kts 329°
2026-05-07 01:10 51.40632 -0.54800 5594 ft 133 kts 330°
2026-05-07 01:11 51.41415 -0.55584 5355 ft 133 kts 330°
2026-05-07 01:11 51.42185 -0.56356 5116 ft 132 kts 330°
2026-05-07 01:11 51.42961 -0.57135 4867 ft 131 kts 331°
2026-05-07 01:11 51.43731 -0.57906 4617 ft 131 kts 332°
2026-05-07 01:12 51.44505 -0.58680 4354 ft 131 kts 332°
2026-05-07 01:12 51.45273 -0.59448 4149 ft 126 kts 332°
2026-05-07 01:12 51.46010 -0.60114 3863 ft 120 kts 345°
2026-05-07 01:12 51.46835 -0.60103 3461 ft 121 kts 18°
2026-05-07 01:13 51.47501 -0.59289 3105 ft 124 kts 51°
2026-05-07 01:13 51.47745 -0.57972 2764 ft 130 kts 84°
2026-05-07 01:13 51.47727 -0.56548 2453 ft 126 kts 84°
2026-05-07 01:13 51.47723 -0.55139 2082 ft 128 kts 84°
2026-05-07 01:14 51.47723 -0.53598 1352 ft 148 kts 86°
2026-05-07 01:14 51.47693 -0.51894 692 ft 154 kts 85°
2026-05-07 01:14 51.47730 -0.50223 395 ft 145 kts 85°
2026-05-07 01:14 51.47714 -0.48655 157 ft 133 kts 86°
2026-05-07 01:15 51.47735 -0.47276 93 ft 115 kts 85°
2026-05-07 01:15 51.47761 -0.46476 93 ft 101 kts 88°
2026-05-07 01:15 51.47761 -0.45697 82 ft 33 kts 89°
2026-05-07 01:15 51.47668 -0.45471 85 ft 0 kts 173°
2026-05-07 01:16 51.47663 -0.45470 87 ft 5 kts 173°
2026-05-07 01:16 51.47628 -0.45479 88 ft 10 kts 202°
2026-05-07 01:17 51.47596 -0.45593 86 ft 14 kts 265°
2026-05-07 01:17 51.47596 -0.45767 89 ft 17 kts 272°
2026-05-07 01:17 51.47595 -0.45972 87 ft 20 kts 271°
2026-05-07 01:17 51.47596 -0.46204 91 ft 21 kts 269°
2026-05-07 01:18 51.47594 -0.46533 92 ft 24 kts 270°
2026-05-07 01:18 51.47590 -0.46808 90 ft 26 kts 261°
2026-05-07 01:18 51.47583 -0.47009 88 ft 28 kts 270°
2026-05-07 01:18 51.47579 -0.47300 89 ft 21 kts 253°
2026-05-07 01:19 51.47502 -0.47386 87 ft 8 kts 246°
2026-05-07 01:19 51.47492 -0.47532 85 ft 19 kts 268°
2026-05-07 01:19 51.47491 -0.47793 85 ft 27 kts 270°
2026-05-07 01:19 51.47491 -0.48121 85 ft 31 kts 270°
2026-05-07 01:20 51.47489 -0.48441 85 ft 20 kts 270°
2026-05-07 01:20 51.47489 -0.48676 85 ft 22 kts 270°
2026-05-07 01:20 51.47466 -0.48831 87 ft 3 kts 192°
2026-05-07 01:20 51.47411 -0.48831 84 ft 3 kts 180°
2026-05-07 01:21 51.47410 -0.48831 84 ft 0 kts 180°